Simultaneous Nadir Overpasses (SNOs) Predictions

Prediction of SNOs between GOES-17 and AQUA Satellite Orbit:

Table of predicted SNOs for the next 14.0 days since TLE Epoch: 12/24/2022
Index Date Time (GOES-17) GOES-17 Lat,Lon AQUA Lat,Lon Distance(km) Time Diff (sec)
1 12/25/2022 10:42:55 0.01,-137.33 -0.39,-135.32 227.77 80
2 12/25/2022 23:04:07 -0.02,-137.33 -0.67,-140.47 356.45 80
3 12/27/2022 22:51:06 -0.02,-137.32 -0.01,-137.29 2.83 80
4 12/29/2022 22:38:05 -0.02,-137.30 0.67,-134.12 362.11 80
5 12/30/2022 11:01:47 0.02,-137.30 0.46,-139.21 218.17 80
6 01/01/2023 10:46:06 0.03,-137.28 -0.25,-136.04 140.85 80
7 01/01/2023 23:07:17 -0.03,-137.27 -0.84,-141.18 443.43 80
8 01/03/2023 10:33:04 0.03,-137.26 -0.92,-132.87 499.33 80
9 01/03/2023 22:56:54 -0.03,-137.25 -0.22,-137.99 85.10 80
10 01/05/2023 22:41:12 -0.04,-137.22 0.48,-134.82 272.83 80
11 01/06/2023 11:04:53 0.04,-137.21 0.64,-139.91 307.87 80
